DW7371 Lopez Island WA US current weather conditions

sailwx.info

Wind from 087

Air temperature 6.7° C
Dewpoint 5.9° C

Last reported at 2019-Nov-21 18:58 UTC.
Time now 2019-Nov-21 19:37 UTC

Location: N 48°32' W 122°52'.
View on Google Maps.

See reports from other nearby stations

  
Tides and Currents Weather Stations Pressure Air Temp Water Temp Dewpoint Dewpoint Depression Visibility Wind Speed Wind Dir Waves Ship Positions
date/time (UTC)wind fromknots sea level pressurealtimeterstation pressurevisibilityair tempwater tempwave heightnotes
2019-Nov-21 18:58 087 6.7
2019-Nov-21 18:48 095 6.1
2019-Nov-21 18:38 104 6.1
2019-Nov-21 18:28 104 6.1
2019-Nov-21 18:18 104 5.6
2019-Nov-21 18:08 104 5.6
2019-Nov-21 17:58 104 5.6
2019-Nov-21 17:48 104 5.6
2019-Nov-21 17:38 104 5.0
2019-Nov-21 17:28 355 2 gusting 2 4.4
2019-Nov-21 17:18 355 4.4
2019-Nov-21 17:07 355 2 gusting 4 3.9
2019-Nov-21 16:57 355 3.3
2019-Nov-21 16:47 355 2.8
2019-Nov-21 16:37 355 2.2
2019-Nov-21 16:27 355 1.1
2019-Nov-21 16:07 355 1.1
2019-Nov-21 15:57 355 221 gusting 221 1.1
2019-Nov-21 15:47 355 221 gusting 221 1.1
2019-Nov-21 15:37 355 221 gusting 221 1.7
2019-Nov-21 15:27 355 221 gusting 221 2.2
2019-Nov-21 15:17 355 221 gusting 221 1.7
2019-Nov-21 15:07 355 221 gusting 221 1.1
2019-Nov-21 14:57 355 221 gusting 221 1.7
2019-Nov-21 14:47 355 221 gusting 221 1.1
2019-Nov-21 14:37 355 221 gusting 221 1.1
2019-Nov-21 14:27 355 221 gusting 221 2.2
2019-Nov-21 14:17 355 221 gusting 221 2.2
2019-Nov-21 14:07 355 221 gusting 221 2.2
2019-Nov-21 13:57 355 2.2
2019-Nov-21 13:47 355 2.2
2019-Nov-21 13:37 355 2.2
2019-Nov-21 13:27 355 2.2
2019-Nov-21 13:17 355 2.2
2019-Nov-21 13:07 355 2.2
2019-Nov-21 12:57 355 0 gusting 2 2.2
2019-Nov-21 12:47 355 2.2
2019-Nov-21 12:37 355 1.7
2019-Nov-21 12:27 355 1.1
2019-Nov-21 12:17 355 1.7
2019-Nov-21 12:07 355 2 gusting 5 2.2
2019-Nov-21 11:57 355 3 gusting 3 2.2
2019-Nov-21 11:47 355 3 gusting 3 2.8
2019-Nov-21 11:37 355 2.2
2019-Nov-21 11:27 355 2.8
2019-Nov-21 11:17 355 2 gusting 3 2.2
2019-Nov-21 11:07 355 1 gusting 3 2.2
2019-Nov-21 10:57 355 2.2
2019-Nov-21 10:47 355 0 gusting 3 2.8
2019-Nov-21 10:37 355 2 gusting 2 3.3
2019-Nov-21 10:27 355 3.3
2019-Nov-21 10:17 355 3.3
2019-Nov-21 10:07 355 3.3
2019-Nov-21 09:57 355 2.8
2019-Nov-21 09:47 355 2.8
2019-Nov-21 09:37 355 2.8
2019-Nov-21 09:27 355 3.3
2019-Nov-21 09:17 355 2.8
2019-Nov-21 09:07 355 3.3
2019-Nov-21 08:57 355 3.3
2019-Nov-21 08:47 355 3.3
2019-Nov-21 08:37 355 3.3
2019-Nov-21 08:27 355 3.3
2019-Nov-21 08:17 355 1 gusting 3 3.3
2019-Nov-21 08:07 355 2 gusting 2 3.3
2019-Nov-21 07:57 341 3.3
2019-Nov-21 07:47 340 3.3
2019-Nov-21 07:37 340 3.3
2019-Nov-21 07:27 340 3.3
2019-Nov-21 07:17 340 3 gusting 4 3.9
2019-Nov-21 07:06 340 3.9
2019-Nov-21 06:56 340 3.9
2019-Nov-21 06:46 340 3 gusting 3 3.9
2019-Nov-21 06:36 340 0 gusting 2 3.3
2019-Nov-21 06:26 340 3.3
2019-Nov-21 06:16 341 3.3
2019-Nov-21 06:06 340 3.3
2019-Nov-21 05:56 340 3.9
2019-Nov-21 05:46 340 3.3
2019-Nov-21 05:36 341 1 gusting 3 3.3
2019-Nov-21 05:26 340 3.9
2019-Nov-21 05:16 340 3.9
2019-Nov-21 05:06 340 1 gusting 4 3.9
2019-Nov-21 04:56 340 3 gusting 5 3.9
2019-Nov-21 04:46 340 3 gusting 5 4.4
2019-Nov-21 04:36 334 5 gusting 5 4.4
2019-Nov-21 04:26 334 3.3
2019-Nov-21 04:16 334 2 gusting 2 3.9
2019-Nov-21 04:06 334 3 gusting 5 4.4
2019-Nov-21 03:56 333 1 gusting 4 4.4
2019-Nov-21 03:46 333 2 gusting 4 4.4
2019-Nov-21 03:36 204 3.9
2019-Nov-21 03:26 204 4.4
2019-Nov-21 03:16 204 0 gusting 1 4.4
2019-Nov-21 03:06 204 4.4
2019-Nov-21 02:56 204 1 gusting 1 4.4
2019-Nov-21 02:46 204 4.4
2019-Nov-21 02:36 204 1 gusting 2 4.4
2019-Nov-21 02:26 204 5.0
2019-Nov-21 02:16 204 5.0
2019-Nov-21 02:06 348 5.6
2019-Nov-21 01:56 348 6.7
2019-Nov-21 01:46 354 6 gusting 6 6.1
2019-Nov-21 01:36 346 5 gusting 8 6.1
2019-Nov-21 01:26 326 1 gusting 3 6.1
2019-Nov-21 01:16 326 6.1
2019-Nov-21 01:06 326 1 gusting 9 6.7
2019-Nov-21 00:56 324 8 gusting 8 7.2
2019-Nov-21 00:46 341 5 gusting 8 7.2
2019-Nov-21 00:36 320 4 gusting 6 7.8
2019-Nov-21 00:26 333 2 gusting 2 8.3
2019-Nov-21 00:16 333 1 gusting 2 8.9
2019-Nov-21 00:06 333 9.4
2019-Nov-20 23:56 333 9.4
2019-Nov-20 23:46 333 9.4
2019-Nov-20 23:36 333 9.4
2019-Nov-20 23:26 332 9.4
2019-Nov-20 23:16 330 3 gusting 9 9.4
2019-Nov-20 23:06 313 6 gusting 9 10.0
2019-Nov-20 22:56 307 7 gusting 8 10.0
2019-Nov-20 22:46 322 6 gusting 7 10.0
2019-Nov-20 22:36 326 7 gusting 11 10.0
2019-Nov-20 22:26 319 6 gusting 11 10.0
2019-Nov-20 22:16 313 7 gusting 8 10.6
2019-Nov-20 22:06 316 8 gusting 10 10.6
2019-Nov-20 21:56 355 6 gusting 7 10.6
2019-Nov-20 21:39 301 3 gusting 6 11.1
2019-Nov-20 21:29 351 1 gusting 6 11.1
2019-Nov-20 21:19 320 6 gusting 13 10.6
2019-Nov-20 21:09 351 6 gusting 12 10.6
2019-Nov-20 20:59 339 6 gusting 10 10.6
2019-Nov-20 20:49 338 8 gusting 12 10.6
2019-Nov-20 20:39 310 6 gusting 12 10.6
2019-Nov-20 20:29 333 9 gusting 13 10.0
2019-Nov-20 20:19 307 6 gusting 11 10.0
2019-Nov-20 20:09 308 3 gusting 11 10.6
2019-Nov-20 19:59 310 6 gusting 9 10.6
2019-Nov-20 19:49 300 8 gusting 13 10.6
2019-Nov-20 19:39 344 3 gusting 15 10.0
2019-Nov-20 19:29 343 12 gusting 14 10.6
2019-Nov-20 19:19 335 10 gusting 11 10.6
2019-Nov-20 19:09 035 7 gusting 15 10.0
2019-Nov-20 18:59 342 6 gusting 9 10.0
2019-Nov-20 18:49 335 9 gusting 13 10.0
2019-Nov-20 18:39 341 4 gusting 13 10.0
2019-Nov-20 18:29 013 4 gusting 12 10.0
2019-Nov-20 18:19 018 5 gusting 21 9.4
2019-Nov-20 18:09 041 10 gusting 24 9.4
2019-Nov-20 17:59 343 3 gusting 13 9.4
2019-Nov-20 17:49 017 4 gusting 13 8.9
2019-Nov-20 17:39 013 11 gusting 16 8.9
2019-Nov-20 17:29 345 8 gusting 12 8.9
2019-Nov-20 17:19 060 1 gusting 18 8.9
2019-Nov-20 17:09 005 6 gusting 19 8.9
2019-Nov-20 16:59 358 4 gusting 17 8.9
2019-Nov-20 16:49 353 18 gusting 19 8.9
2019-Nov-20 16:39 007 9 gusting 14 8.9
2019-Nov-20 16:29 059 13 gusting 20 8.3
2019-Nov-20 16:19 343 12 gusting 19 8.3
2019-Nov-20 16:09 326 8 gusting 25 8.3
2019-Nov-20 15:59 015 221 gusting 221 8.3
2019-Nov-20 15:49 015 221 gusting 221 8.3
2019-Nov-20 15:39 015 221 gusting 221 8.3
2019-Nov-20 15:29 015 221 gusting 221 7.8
2019-Nov-20 15:19 015 221 gusting 221 8.3
2019-Nov-20 15:09 015 221 gusting 221 8.3
2019-Nov-20 14:59 015 221 gusting 221 8.3
2019-Nov-20 14:49 015 221 gusting 221 8.9
2019-Nov-20 14:39 015 221 gusting 221 8.9
2019-Nov-20 14:29 015 221 gusting 221 8.9
2019-Nov-20 14:19 015 221 gusting 221 8.3
2019-Nov-20 14:09 015 221 gusting 221 8.9
2019-Nov-20 13:59 015 7 gusting 11 8.9
2019-Nov-20 13:49 033 5 gusting 11 8.9
2019-Nov-20 13:39 025 5 gusting 14 8.9
2019-Nov-20 13:28 018 7 gusting 20 8.9
2019-Nov-20 13:18 043 8 gusting 13 8.9
2019-Nov-20 13:08 360 4 gusting 19 8.3
2019-Nov-20 12:58 035 3 gusting 12 7.8
2019-Nov-20 12:48 282 7.8
2019-Nov-20 12:38 320 7 gusting 7 7.8
2019-Nov-20 12:28 015 0 gusting 8 8.3
2019-Nov-20 12:18 331 7 gusting 12 8.9
2019-Nov-20 12:08 353 1 gusting 14 8.9
2019-Nov-20 11:58 006 7 gusting 13 8.9
2019-Nov-20 11:48 008 11 gusting 15 8.9
2019-Nov-20 11:38 353 5 gusting 11 8.9
2019-Nov-20 11:28 004 3 gusting 12 8.9
2019-Nov-20 11:18 054 3 gusting 9 8.9
2019-Nov-20 11:08 041 8 gusting 13 9.4
2019-Nov-20 10:58 319 0 gusting 9 9.4
2019-Nov-20 10:48 337 1 gusting 12 9.4
2019-Nov-20 10:38 019 9 gusting 13 9.4
2019-Nov-20 10:28 343 5 gusting 13 9.4
2019-Nov-20 10:18 012 5 gusting 16 9.4
2019-Nov-20 10:08 352 6 gusting 16 8.9
2019-Nov-20 09:58 338 7 gusting 13 8.9
2019-Nov-20 09:48 002 9 gusting 13 8.9
2019-Nov-20 09:38 014 6 gusting 13 8.9
2019-Nov-20 09:28 009 11 gusting 13 8.9
2019-Nov-20 09:18 347 9 gusting 14 8.9
2019-Nov-20 09:08 024 3 gusting 15 8.9
2019-Nov-20 08:58 034 11 gusting 14 8.9
2019-Nov-20 08:48 021 5 gusting 10 8.9
2019-Nov-20 08:38 012 6 gusting 13 9.4
2019-Nov-20 08:28 345 10 gusting 19 9.4
2019-Nov-20 08:18 349 7 gusting 15 9.4
2019-Nov-20 08:08 041 10 gusting 15 9.4
2019-Nov-20 07:58 318 6 gusting 14 9.4
2019-Nov-20 07:48 359 7 gusting 13 9.4
2019-Nov-20 07:38 002 13 gusting 13 9.4
2019-Nov-20 07:28 010 2 gusting 13 9.4
2019-Nov-20 07:18 355 9 gusting 12 9.4
2019-Nov-20 07:08 008 6 gusting 15 8.9
2019-Nov-20 06:58 345 4 gusting 10 8.9
2019-Nov-20 06:48 318 2 gusting 13 8.9
2019-Nov-20 06:38 287 7 gusting 13 8.3
2019-Nov-20 06:28 347 3 gusting 12 8.3
2019-Nov-20 06:18 338 11 gusting 15 8.3
2019-Nov-20 06:08 337 12 gusting 15 7.8
2019-Nov-20 05:58 335 8 gusting 14 7.2
2019-Nov-20 05:48 325 13 gusting 13 7.2
2019-Nov-20 05:38 322 5 gusting 8 7.2
2019-Nov-20 05:28 312 1 gusting 8 7.2
2019-Nov-20 05:18 340 7.2
2019-Nov-20 05:08 308 4 gusting 7 7.2
2019-Nov-20 04:58 335 7.8
2019-Nov-20 04:48 341 4 gusting 6 7.8
2019-Nov-20 04:38 338 1 gusting 6 7.8
2019-Nov-20 04:28 328 8.3
2019-Nov-20 04:18 329 0 gusting 6 8.3
2019-Nov-20 04:08 314 4 gusting 7 8.9
2019-Nov-20 03:58 348 5 gusting 10 8.9
2019-Nov-20 03:48 316 11 gusting 14 8.9
2019-Nov-20 03:38 322 9 gusting 14 8.9
2019-Nov-20 03:27 332 11 gusting 16 9.4
2019-Nov-20 03:17 320 10 gusting 15 9.4
2019-Nov-20 03:07 337 4 gusting 16 9.4
2019-Nov-20 02:57 344 13 gusting 17 9.4
2019-Nov-20 02:47 328 11 gusting 17 9.4
2019-Nov-20 02:37 006 7 gusting 19 9.4
2019-Nov-20 02:27 326 10 gusting 19 9.4
2019-Nov-20 02:17 350 13 gusting 17 9.4
2019-Nov-20 02:07 333 11 gusting 19 9.4
2019-Nov-20 01:57 349 15 gusting 24 9.4
2019-Nov-20 01:47 333 14 gusting 22 9.4
2019-Nov-20 01:37 345 15 gusting 22 9.4
2019-Nov-20 01:27 337 13 gusting 22 9.4
2019-Nov-20 01:17 007 11 gusting 20 9.4
2019-Nov-20 01:07 328 17 gusting 21 9.4
2019-Nov-20 00:57 327 18 gusting 25 9.4
2019-Nov-20 00:47 337 20 gusting 21 9.4
2019-Nov-20 00:37 330 16 gusting 22 9.4
2019-Nov-20 00:27 331 20 gusting 26 9.4
2019-Nov-20 00:17 350 13 gusting 22 10.0
2019-Nov-20 00:07 332 13 gusting 21 10.0
2019-Nov-19 23:57 334 13 gusting 20 10.0
2019-Nov-19 23:47 330 16 gusting 18 10.0
2019-Nov-19 23:37 348 8 gusting 17 10.0
2019-Nov-19 23:27 317 8 gusting 17 10.0
2019-Nov-19 23:17 345 9 gusting 18 10.0
2019-Nov-19 23:07 358 17 gusting 20 10.6
2019-Nov-19 22:57 324 12 gusting 18 10.6
2019-Nov-19 22:47 326 13 gusting 20 10.6
2019-Nov-19 22:37 328 10 gusting 18 10.6
2019-Nov-19 22:27 330 16 gusting 20 10.6
2019-Nov-19 22:17 321 13 gusting 18 10.6
2019-Nov-19 22:07 328 12 gusting 21 10.6
2019-Nov-19 21:57 323 10 gusting 14 10.6
2019-Nov-19 21:47 332 15 gusting 19 10.0
2019-Nov-19 21:37 342 10 gusting 22 10.0
2019-Nov-19 21:27 318 15 gusting 26 10.0
2019-Nov-19 21:17 330 13 gusting 24 10.0
2019-Nov-19 21:07 328 17 gusting 26 10.0
2019-Nov-19 20:57 348 14 gusting 26 10.0
2019-Nov-19 20:47 334 16 gusting 25 10.0
2019-Nov-19 20:37 337 22 gusting 28 10.0
2019-Nov-19 20:27 326 19 gusting 27 9.4
2019-Nov-19 20:17 322 9 gusting 22 9.4
2019-Nov-19 20:07 323 12 gusting 25 9.4
2019-Nov-19 19:57 339 14 gusting 18 9.4
2019-Nov-19 19:47 318 13 gusting 21 9.4
2019-Nov-19 19:37 337 9 gusting 20 9.4
2019-Nov-19 19:27 324 17 gusting 17 9.4
2019-Nov-19 19:17 326 13 gusting 18 9.4
2019-Nov-19 19:07 333 13 gusting 18 9.4